Location: Unspecified
(38.7223°N, 0.0000°E)
Time: 17:24:17
(UTC+00:00)

ISS - Visible Passes

Search period start: 24 June 2019 00:00
Search period end: 04 July 2019 00:00
Orbit: 407 x 418 km, 51.6° (Epoch: 25 June)

Date Brightness Start Highest point End Pass type
(mag) Time Alt. Az. Time Alt. Az. Time Alt. Az.
27 Jun -1.4 03:51:25 10° S 03:53:35 16° SE 03:55:45 10° E visible
29 Jun -3.1 03:47:48 11° SSW 03:50:49 47° SE 03:54:01 10° ENE visible
30 Jun -2.2 03:00:11 20° SSE 03:01:20 25° SE 03:04:06 10° ENE visible
01 Jul -1.2 02:12:31 13° ESE 02:12:31 13° ESE 02:13:38 10° E visible
01 Jul -3.4 03:45:20 13° WSW 03:48:12 57° NW 03:51:28 10° NE visible
02 Jul -3.9 02:57:35 42° SW 02:58:33 76° SE 03:01:52 10° NE visible
03 Jul -2.5 02:09:46 32° E 02:09:46 32° E 02:12:05 10° ENE visible
03 Jul -2.0 03:42:55 10° W 03:45:43 25° NNW 03:48:31 10° NNE visible
